Terminal Aerodrome Forecast
Issued by NWS New Orleans/Baton Rouge, LA

Home | Current Version | Previous Version | Text Only | Print | Product List | Glossary On
Versions: 1 2 3 4 5 6 7 8 9 10 11 12 13 14
000
FTUS44 KLIX 301736
TAFBTR
TAF
KBTR 301736Z 3018/3118 24008KT P6SM BKN030
     FM310100 VRB03KT P6SM SCT250
     FM310800 VRB03KT 5SM BR SCT008
     FM311500 23006KT P6SM BKN050=

USA.gov is the U.S. government's official web portal to all federal, state and local government web resources and services.